RH
45 43 46 48 50 51 54 59 58 61 64 66 69 68 70 72 75 68 71 64 76 78 82 84 84 88 91 93 92 92 92 93 92 96 90 88 82 86 77 93 87 84 84
38 38 41 47 49 53 52 56 56 59 63 63 65 70 64 67 69 71 66 60 63 72 68 81 86 88 88 89 95 94 94 97 92 92 97 97 88 78 67 89 89 84 87
38 38 40 46 48 52 51 51 55 56 62 60 61 56 55 59 65 67 69 65 63 69 73 78 78 86 87 88 94 96 93 97 94 94 98 97 95 90 84 85 87 80 89
35 37 41 46 50 54 54 52 52 54 56 64 67 63 66 64 68 68 67 67 64 68 69 76 81 83 82 82 90 89 90 94 91 96 89 92 96 96 92 78 78 75 75
39 40 40 42 50 51 54 53 54 58 58 65 65 73 69 71 71 73 72 72 76 71 69 75 79 81 78 78 84 89 84 91 93 93 96 93 94 92 92 91 81 68 68
40 40 39 42 47 52 56 55 54 58 61 62 68 68 72 69 74 76 78 78 79 78 77 71 79 81 77 76 83 82 78 83 91 87 88 89 92 89 92 90 89 89 68
43 42 44 48 49 54 53 52 55 59 62 64 65 68 70 72 73 77 79 78 80 82 81 79 81 83 78 80 82 82 78 80 85 87 80 86 82 86 82 86 86 88 75
41 42 45 50 50 49 51 51 53 58 60 64 66 66 68 74 76 76 77 81 79 80 76 77 78 77 77 77 80 79 76 79 86 87 81 84 80 78 83 80 88 88 76
43 44 46 50 51 54 58 52 53 56 59 66 70 69 70 71 74 74 74 78 77 60 74 74 75 76 74 76 78 80 73 80 83 85 85 83 80 79 84 79 90 86 90
43 45 45 51 53 56 57 56 53 55 59 61 65 65 67 70 72 72 74 74 75 72 73 73 74 74 72 76 76 79 77 78 82 72 82 79 81 81 84 87 77 74 82
45 42 45 52 53 60 57 59 54 54 58 63 66 66 66 69 70 72 75 74 72 73 72 70 71 71 71 77 77 74 73 72 75 76 72 75 75 78 86 85 82 83 79
42 40 44 51 51 59 60 54 56 56 54 60 64 67 66 68 71 70 70 72 69 72 66 68 69 69 72 75 74 76 76 74 75 74 76 72 65 82 85 82 85 80 75
40 40 43 48 52 55 58 56 54 52 51 56 64 68 69 68 71 69 67 67 67 69 68 68 69 70 73 72 73 75 78 76 78 77 76 75 82 85 86 84 81 80 70
34 39 42 48 45 49 56 56 56 52 50 50 64 68 69 67 68 66 65 66 67 69 68 69 70 71 73 68 70 70 79 79 74 78 80 77 74 85 79 71 80 66 69
32 35 42 46 45 48 52 50 56 55 51 50 63 67 64 64 63 64 65 69 71 71 70 69 69 71 63 58 77 76 79 80 75 76 67 70 73 72 75 65 70 73 76
29 32 37 40 39 40 46 46 52 58 54 55 59 60 58 61 62 62 67 70 73 74 73 71 70 70 53 83 77 79 81 76 74 76 72 71 70 72 72 73 79 85 82
27 32 34 36 34 38 40 52 52 57 56 58 56 55 57 62 62 62 64 70 77 82 75 72 71 70 80 80 77 82 76 78 80 75 76 69 60 76 70 73 76 74 77
25 30 31 34 32 38 41 49 47 52 55 54 52 54 58 60 65 64 66 75 78 76 75 72 70 74 71 80 81 81 78 82 78 78 75 77 77 75 76 74 74 76 77
26 30 30 32 34 36 40 41 46 48 51 49 49 50 56 54 61 74 84 81 76 74 72 66 74 79 81 86 81 80 84 79 80 70 75 74 75 77 79 81 86 86 87
30 31 31 29 32 36 39 40 44 46 47 47 43 47 50 50 51 60 63 66 68 66 72 72 76 73 77 80 79 85 91 86 79 72 71 76 78 81 81 86 88 94 91
35 31 28 29 32 36 39 42 49 46 45 45 46 46 47 49 52 55 61 65 70 79 82 77 77 74 75 79 82 84 81 80 72 72 75 78 81 83 84 85 91 92 88
32 30 30 33 36 38 37 45 47 53 50 48 49 50 49 40 47 58 62 73 84 85 86 88 89 90 88 85 88 83 80 78 74 77 80 82 82 84 86 88 88 88 89
28 28 31 37 38 40 38 44 52 55 52 52 53 54 54 51 55 59 74 86 85 89 92 92 92 92 92 92 88 84 83 84 84 77 81 83 85 87 90 86 86 87 91
28 27 35 39 41 41 38 45 51 52 50 55 58 60 65 65 61 70 80 86 92 96 90 91 93 96 94 94 93 92 94 88 78 78 85 89 92 92 89 86 83 88 92
28 30 37 41 42 41 45 45 54 50 48 53 60 64 71 68 71 81 86 88 86 86 89 90 92 96 94 94 88 88 89 80 75 87 91 85 86 86 80 78 82 86 88
30 32 38 42 43 40 44 50 51 46 51 56 69 82 89 90 90 95 93 85 83 85 84 83 87 88 87 86 84 87 81 83 84 87 87 89 89 88 86 89 88 83 84
Wind_Speed
7 6 5 6 7 8 8 8 10 9 6 4 4 4 4 4 5 7 9 10 7 7 8 6 7 8 8 9 10 8 9 8 12 4 6 4 5 8 10 4 9 13 12
9 8 7 6 8 7 8 7 8 8 6 4 4 4 4 4 4 5 7 9 9 8 9 7 6 7 6 8 8 9 6 4 9 7 4 5 4 9 8 6 8 13 9
10 7 7 6 7 7 7 7 7 8 7 7 4 5 4 5 5 5 4 8 10 8 8 7 7 5 5 6 5 7 10 6 6 8 5 5 5 10 5 7 7 13 8
11 8 9 7 8 6 7 8 8 7 7 8 6 8 4 5 4 4 4 6 11 9 9 8 6 6 6 8 6 6 5 4 7 3 6 2 4 4 8 6 8 9 9
10 9 8 8 7 7 7 7 8 7 7 7 7 6 6 4 3 4 6 7 6 8 8 8 7 8 7 8 8 6 10 5 4 4 3 2 4 2 6 9 15 8 8
9 9 8 9 8 6 7 7 8 7 6 7 7 7 8 7 6 5 5 5 4 5 7 8 7 6 8 9 6 7 9 8 6 6 6 5 4 7 5 7 8 12 12
10 9 9 8 7 7 7 8 8 7 7 7 7 7 8 8 7 6 5 5 4 4 6 6 6 5 6 7 6 6 7 7 6 6 6 4 6 5 5 6 9 10 8
13 11 10 9 9 7 7 8 8 8 7 7 7 7 7 5 5 6 5 4 4 4 6 6 6 6 6 6 6 5 6 7 5 7 6 3 6 5 4 6 10 11 9
13 10 10 9 9 8 6 9 9 7 7 6 6 7 6 6 6 7 5 3 4 3 4 4 4 5 6 6 6 5 8 6 6 5 6 4 4 5 4 5 4 7 13
12 10 12 10 7 8 5 7 8 8 7 7 6 5 6 6 6 6 5 4 3 3 4 5 6 7 7 7 6 5 5 6 5 6 6 5 4 5 4 3 5 6 8
12 12 11 9 11 9 7 6 8 8 7 7 6 6 5 6 6 5 4 4 4 5 6 6 6 6 6 6 6 5 6 7 7 7 8 9 7 5 4 4 4 4 7
13 13 12 13 12 10 8 7 7 7 7 7 6 6 5 6 5 5 4 5 6 5 5 6 5 6 6 5 6 5 6 8 9 9 9 10 8 5 5 6 5 7 7
13 14 13 14 12 11 8 7 7 7 6 6 7 6 5 5 5 4 4 4 4 5 6 5 5 5 5 5 6 5 6 7 6 7 9 10 5 5 4 5 7 7 8
16 13 14 12 12 11 10 8 7 7 6 6 7 7 5 5 4 4 3 4 5 5 5 5 5 5 6 5 5 5 6 7 8 8 8 8 11 5 8 9 7 11 12
17 16 15 13 12 11 10 9 8 7 7 6 6 6 5 5 5 3 4 5 5 4 5 5 5 5 5 4 5 5 5 6 8 10 11 10 14 15 14 11 12 12 10
20 18 17 16 15 14 12 11 9 8 7 6 6 6 5 5 5 3 5 5 4 4 4 4 4 4 4 7 4 5 5 6 8 9 10 9 13 12 17 15 13 11 12
20 19 19 17 15 14 13 11 10 8 7 7 6 6 6 6 5 5 4 2 2 2 3 4 3 4 6 3 7 7 4 5 6 8 9 10 10 13 12 13 16 15 17
20 19 17 15 15 14 12 11 11 10 8 7 7 6 6 6 6 5 4 2 2 2 3 3 3 4 4 2 6 7 6 6 6 8 11 12 13 13 15 16 15 14 14
15 15 14 15 13 15 14 13 11 10 8 7 8 8 7 6 6 4 4 3 1 2 2 2 6 6 2 1 9 7 5 6 8 11 10 12 13 17 22 16 16 15 14
13 15 15 15 16 14 15 14 12 11 10 8 8 8 7 6 5 6 4 2 0 1 3 5 5 6 4 6 8 7 3 6 8 11 12 16 15 22 24 17 14 14 14
16 16 18 17 17 16 15 14 11 12 10 8 8 8 7 6 6 5 2 1 3 5 5 5 4 4 4 5 8 8 5 7 11 12 12 10 20 24 26 23 13 14 17
18 20 17 15 15 17 16 14 12 9 8 10 9 8 7 4 4 5 2 4 5 4 4 3 4 4 5 6 5 8 10 12 10 11 10 12 23 26 25 20 20 22 15
18 18 17 16 15 16 16 14 10 8 10 9 8 7 7 6 5 4 4 3 3 2 3 2 3 4 4 4 7 9 11 9 9 9 15 22 23 22 16 15 20 15 9
16 16 16 17 15 14 15 13 11 11 11 9 8 7 7 6 5 4 4 3 2 1 1 3 4 3 4 4 4 4 4 7 9 10 9 11 14 11 10 10 11 9 9
15 16 16 16 16 15 13 13 12 13 11 9 7 7 5 6 4 4 4 3 4 5 3 4 3 3 4 4 5 9 7 9 10 10 6 8 9 10 11 11 11 10 9
15 15 16 17 16 16 14 11 13 14 12 9 6 5 5 4 4 3 2 4 8 6 8 9 6 4 7 9 10 11 14 16 15 6 9 10 10 11 12 12 12 11 12
Wind_Direction
145 111 112 102 96 70 66 52 37 13 28 9 21 44 61 58 72 65 60 45 30 40 37 36 38 29 28 15 11 355 357 4 354 319 337 315 295 52 358 349 14 17 14
112 105 87 74 74 87 80 72 55 24 29 32 356 63 75 48 79 77 63 54 40 31 39 35 29 38 30 18 14 16 358 355 6 358 296 347 337 6 340 30 19 15 352
132 137 145 127 94 80 84 77 66 45 24 32 38 40 47 37 40 37 55 57 45 27 31 33 31 30 32 22 7 15 14 8 357 28 11 348 355 323 356 9 10 1 355
153 162 143 130 116 103 96 89 75 63 41 32 50 63 63 73 46 55 63 67 54 33 26 24 22 29 23 22 6 23 18 1 18 358 1 342 285 347 324 330 344 350 354
143 141 138 134 129 119 116 96 93 81 64 51 56 77 65 61 52 55 53 51 53 36 24 22 21 33 26 22 16 17 24 10 5 9 341 329 318 10 313 320 329 337 353
142 138 134 121 119 102 109 120 106 100 79 69 56 75 88 65 51 45 49 34 39 34 21 19 21 30 27 19 15 20 23 10 5 359 5 1 352 342 345 323 321 326 336
144 144 138 130 127 147 133 126 115 104 95 79 65 58 72 75 63 54 54 39 23 27 19 15 19 25 31 17 25 20 23 8 8 3 357 337 346 347 332 331 326 320 316
154 160 151 145 142 132 121 116 115 108 101 99 83 66 62 68 65 61 54 38 30 30 22 15 19 33 32 23 37 18 20 3 355 358 351 330 337 339 334 333 327 329 327
157 160 152 140 131 129 133 130 114 114 105 102 99 83 82 79 82 70 63 49 34 27 30 25 23 33 36 23 42 29 17 357 347 340 340 335 317 328 314 326 352 343 326
159 146 147 144 140 139 132 123 129 129 128 106 108 101 92 85 85 80 85 59 34 26 37 32 25 32 24 26 48 31 9 354 338 346 337 330 309 309 312 353 351 337 318
160 156 150 142 143 140 152 150 132 129 122 118 108 92 80 90 88 83 72 60 35 24 37 30 29 25 14 42 53 25 11 356 346 339 343 330 317 326 351 345 330 336 333
162 158 156 144 154 155 156 150 135 127 134 129 114 110 97 85 82 69 56 56 31 20 40 30 32 23 19 62 47 26 2 352 343 333 332 325 332 353 10 352 347 320 316
161 157 156 157 157 155 153 147 143 147 142 133 128 116 106 96 91 78 54 56 39 33 26 25 22 15 18 57 34 18 351 343 324 318 320 318 359 6 354 331 336 330 323
165 159 162 160 158 157 154 155 157 146 143 135 132 120 117 121 109 89 57 52 37 41 19 14 12 360 64 57 25 7 344 334 333 322 321 348 356 341 347 341 324 325 320
168 169 166 163 160 156 155 155 150 146 149 146 134 140 146 129 103 80 64 55 36 21 13 15 358 4 100 51 33 351 331 336 348 349 349 349 332 344 335 330 325 323 319
174 174 168 165 165 164 159 156 155 153 149 154 151 146 145 129 115 85 76 51 14 351 5 350 347 358 93 88 28 357 2 358 348 340 334 325 323 327 325 322 323 320 317
177 173 171 169 164 163 161 156 160 152 161 163 156 152 160 141 142 124 102 65 331 324 327 320 355 13 106 87 20 13 4 340 322 327 321 325 327 321 319 326 319 311 307
178 173 170 165 159 155 156 150 155 157 163 167 160 160 165 168 173 162 151 201 258 280 307 331 344 45 128 64 25 10 348 330 326 335 332 323 321 323 326 322 320 315 305
175 168 164 158 154 158 157 154 157 161 167 177 168 172 167 173 167 162 184 233 229 312 322 346 29 64 159 16 22 14 339 334 337 334 327 327 321 313 317 320 317 313 302
161 157 154 154 153 160 153 157 163 167 179 177 172 157 160 166 161 155 165 201 211 333 27 47 44 33 21 359 356 22 357 338 335 336 334 327 317 316 319 318 314 310 305
158 154 154 160 160 157 153 163 165 178 179 167 149 147 152 158 157 145 133 131 48 58 41 28 2 351 331 340 1 36 1 342 340 337 332 319 315 315 316 315 308 295 300
158 159 157 158 159 158 158 164 173 176 159 146 142 143 146 149 131 130 99 78 81 49 4 349 357 343 343 342 346 1 331 332 338 331 317 309 313 315 311 312 299 298 302
163 161 157 156 159 160 162 166 175 153 146 140 143 148 149 150 143 133 125 101 71 51 323 358 339 323 314 318 317 314 316 324 327 316 304 309 310 306 307 305 312 313 309
160 157 152 157 159 160 163 164 155 146 146 146 150 152 148 145 146 119 138 138 160 176 244 307 302 285 293 298 297 311 328 316 324 317 310 293 291 293 304 319 322 316 312
157 157 156 159 159 156 157 159 149 151 152 150 152 158 155 152 146 142 168 173 209 184 212 246 239 266 288 270 311 333 322 331 326 322 310 328 333 331 335 334 328 325 323
158 158 158 155 156 158 160 149 150 155 153 157 158 154 143 140 139 140 292 248 218 236 223 238 224 258 245 301 315 310 326 328 326 331 336 334 333 332 333 330 329 329 328